Location: Newark
(58.8333°N, 23.5833°E)
Time: 23:49:16
(UTC+00:00)

A-11 Canister half - Pass Details

Date: 23 November 2019
Orbit: 1515 x 1685 km, 47.2° (Epoch: 12 December)

Event Time Altitude Azimuth Distance (km) Brightness Sun altitude
Rises 22:47:12 0° 280° (W) 4,944 - -51.1°
Reaches altitude 10° 22:54:30 10° 246° (WSW) 3,934 - -50.8°
Maximum altitude 22:56:04 10° 236° (WSW) 3,890 - -50.8°
Drops below altitude 10° 22:57:39 10° 227° (SW) 3,919 - -50.7°
Sets 23:04:53 0° 192° (SSW) 4,861 - -50.4°
